sat.trackr.live / text

‹ back to catalog

STARLINK-32779

NORAD 63030 · 2025-034B

PAYLOAD ACTIVE UNKNOWN

§ Identity

Operator
Country
US
Launch date
2025-02-18
Launch site
AFETR
Launch vehicle
Mass (kg)
RCS (m²)

Purposes: comms

External: N2YO · Heavens-Above · Gunter

§ Orbital elements

Epoch: 2026-09-21T21:19:51.204576Z

Period
93.85 min
Inclination
53.1586°
Eccentricity
0.0000814
Mean motion
15.34396368 rev/d
Perigee alt
462.2 km
Apogee alt
463.3 km
Semi-major
6,840.9 km
B*
5.2809e-4
RAAN
76.9004°
Arg perigee
83.9173°
Mean anomaly
276.1923°
Rev number
8,898

§ Raw data

STARLINK-327791 63030U 25034B   26264.88878709  .00017506  00000+0  52809-3 0  99962 63030  53.1586  76.9004 0000814  83.9173 276.1923 15.34396368 88983

JSON: /api/v1/satellites/63030 · /tle

For live sub-satellite position, see the globe view (requires WebGL).

§ Visibility from observer

Set your observer location to see the next 7 days of passes ≥ 10°. The values pass through the URL so the page stays shareable.

No JS? Fill the form by hand. The geolocation button needs JavaScript.